LRI4LW EGLL-FAOR

Flight info

Callsign LRI4LW
Flight time N/A
Altitude 23000
Route MODMI M185 MID L612 HAWKE/N0495F290 UL612 VEULE DCT DEKOD DCT DISAK DCT DIRMO DCT ETAMO DCT ADEKA DCT MOKDI DCT MEN DCT AMLIR DCT FJR DCT OBLAD DCT KAMER UM998 CSO UA605 RIMEL/N0503F310 UA605 DJA UB730 DIR UA607 FL UM731 EDGUM/N0506F330 UM731 RUDAS UQ25 ITROL UQ44 AVAGO AVAGO1D
Aircraft B77L/H-SDE1E2E3FGHIJ2J3J4J5M1RWXY/LB1D1

Departure

Time 2026-05-07 06:46
Airport London Heathrow Airport (EGLL)

Arrival

Time N/A
Airport O.R. Tambo International Airport (FAOR)
Time Latitude Longitude Altitude Speed Heading
2026-05-07 06:44 51.47750 -0.48401 97 ft 0 kts 90°
2026-05-07 06:45 51.47750 -0.48400 97 ft 0 kts 90°
2026-05-07 06:45 51.47750 -0.48399 97 ft 2 kts 90°
2026-05-07 06:45 51.47751 -0.47913 90 ft 84 kts 90°
2026-05-07 06:45 51.47759 -0.46593 100 ft 153 kts 89°
2026-05-07 06:46 51.47770 -0.44571 252 ft 194 kts 89°
2026-05-07 06:46 51.47797 -0.42405 862 ft 195 kts 89°
2026-05-07 06:46 51.47818 -0.40222 1453 ft 196 kts 92°
2026-05-07 06:46 51.47578 -0.38067 1812 ft 198 kts 112°
2026-05-07 06:47 51.46853 -0.36195 2178 ft 199 kts 134°
2026-05-07 06:47 51.45745 -0.34876 2531 ft 200 kts 155°
2026-05-07 06:47 51.44400 -0.34282 2880 ft 202 kts 176°
2026-05-07 06:47 51.43046 -0.34681 3129 ft 203 kts 203°
2026-05-07 06:48 51.41711 -0.35596 3292 ft 216 kts 202°
2026-05-07 06:48 51.40258 -0.36540 3477 ft 233 kts 202°
2026-05-07 06:48 51.38706 -0.37531 3798 ft 246 kts 202°
2026-05-07 06:48 51.37051 -0.38575 4065 ft 262 kts 202°
2026-05-07 06:49 51.35326 -0.39655 4599 ft 270 kts 202°
2026-05-07 06:49 51.33584 -0.40739 5218 ft 273 kts 202°
2026-05-07 06:49 51.31807 -0.41874 5878 ft 275 kts 205°
2026-05-07 06:49 51.30069 -0.43203 6515 ft 278 kts 207°
2026-05-07 06:50 51.28323 -0.44597 7093 ft 282 kts 207°
2026-05-07 06:50 51.26562 -0.46025 7656 ft 286 kts 207°
2026-05-07 06:50 51.24780 -0.47471 8255 ft 289 kts 207°
2026-05-07 06:50 51.23586 -0.48436 8634 ft 291 kts 207°
2026-05-07 06:51 51.21152 -0.50352 9392 ft 296 kts 206°
2026-05-07 06:51 51.19287 -0.51793 9954 ft 300 kts 206°